Regional Weather Roundup
Issued by NWS Glasgow, MT

Home | Current Version | Previous Version | Text Only | Print | Product List | Glossary On
Versions: 1 2 3 4 5 6 7 8 9 10 11 12 13 14 15 16 17 18 19 20 21 22 23 24 25 26 27 28 29 30 31 32 33 34 35 36 37 38 39 40 41 42 43 44 45 46 47 48 49 50
000
ASUS45 KGGW 260515
RWRGGW
HOURLY REGIONAL WEATHER ROUNDUP FOR NORTHEAST MONTANA
NATIONAL WEATHER SERVICE GLASGOW MONTANA
1000 PM MST SAT FEB 25 2017

NOTE: "FAIR" INDICATES FEW OR NO CLOUDS BELOW 12,000 FEET WITH NO
SIGNIFICANT WEATHER AND/OR OBSTRUCTIONS TO VISISBILITY.

NORTHEAST MONTANA


CITY           SKY/WX    TMP DP  RH WIND       PRES   REMARKS
GLASGOW        CLOUDY    17  13  84 E13       29.65S
PLENTYWOOD       N/A      4   3  96 S3          N/A
WOLF POINT     CLOUDY    12   8  84 NE5       29.70S
JORDAN           N/A     23  18  81 W6        29.64S
WINNETT          N/A     23  16  74 SW3         N/A
SIDNEY         MOCLDY    13  10  88 CALM      29.71S
GLENDIVE       CLOUDY    19  17  92 NE12      29.67F
MALTA            N/A     22  21  96 NE3         N/A
SCOBEY           N/A     -1 -10  65 CALM      29.66S

FORT PECK REPORTS


CITY           SKY/WX    TMP DP  RH WIND       PRES   REMARKS
FORT PECK        N/A     18  18 100 E12         N/A
THE PINES        N/A     21  20  96 CALM        N/A

SOUTHEAST MONTANA


CITY           SKY/WX    TMP DP  RH WIND       PRES   REMARKS
BILLINGS       CLEAR     27  13  55 W23G31    29.68S
MILES CITY     CLOUDY    27  18  69 SW9       29.67F
BAKER          MOCLDY    20  16  84 N6        29.66S
LIVINGSTON     CLOUDY    24   8  50 SW22G33   29.71S

CENTRAL MONTANA


CITY           SKY/WX    TMP DP  RH WIND       PRES   REMARKS
HAVRE          CLOUDY    29  18  63 W13       29.62R
LEWISTOWN      CLOUDY    20   9  62 SW17      29.62S
GREAT FALLS    CLOUDY    27   9  46 SW21      29.63S
CUT BANK       CLOUDY    25  14  63 W24G36    29.59R
HELENA         CLOUDY    28   9  44 W12G21    29.76S
BUTTE            N/A     19   5  54 NW8       29.75S
BOZEMAN        CLOUDY    18   6  59 E5        29.78S

WESTERN MONTANA


CITY           SKY/WX    TMP DP  RH WIND       PRES   REMARKS
MISSOULA       CLOUDY    28  17  63 E5        29.85F
KALISPELL      NOT AVBL

NORTH DAKOTA


CITY           SKY/WX    TMP DP  RH WIND       PRES   REMARKS
WILLISTON      CLOUDY     3   1  91 CALM      29.71S
DICKINSON      CLOUDY    21  18  88 NW7       29.63R
MINOT          PTCLDY    10   6  84 NW8       29.70R
BISMARCK       CLOUDY    28  25  88 W12       29.67R

SOUTHERN SASKATCHEWAN


CITY           SKY/WX    TMP DP  RH WIND       PRES   REMARKS
REGINA         PTCLDY     5   1  85 S8        29.68S
ESTEVAN        PTCLDY    -2  -4  92 SW3       29.69S
SWIFT CURRENT  FLURRIES  16  12  86 S8        29.59S




USA.gov is the U.S. government's official web portal to all federal, state and local government web resources and services.